Location: Del Amo
(33.8464°N, 118.2104°W)
Time: 19:31:16
(UTC+00:00)

Vanguard 1 Rocket - Pass Details

Date: 13 September 2024
Orbit: 650 x 4218 km, 34.3° (Epoch: 04 October)

Event Time Altitude Azimuth Distance (km) Brightness Sun altitude
Rises 19:55:38 0° 288° (WNW) 8,451 12.2 59.5°
Reaches altitude 10° 20:03:06 10° 279° (W) 7,395 12.1 59.3°
Maximum altitude 20:21:19 27° 232° (SW) 5,279 12.2 58.6°
Drops below altitude 10° 20:34:49 10° 182° (S) 5,367 12.0 57.6°
Sets 20:39:12 0° 169° (S) 5,869 11.9 57.3°
